Location: Dana
(41.8364°N, 106.7042°W)
Time: 10:27:44
(UTC+00:00)

Tiros 1 despin weight - Pass Details

Date: 13 May 2026
Orbit: 554 x 591 km, 48.2° (Epoch: 10 June)

Event Time Altitude Azimuth Distance (km) Brightness Sun altitude
Rises 15:17:47 0° 280° (W) 2,738 ? 37.1°
Reaches altitude 10° 15:20:12 10° 289° (WNW) 1,839 ? 37.5°
Maximum altitude 15:24:02 34° 356° (N) 925 ? 38.2°
Drops below altitude 10° 15:27:53 10° 62° (ENE) 1,834 ? 38.9°
Sets 15:30:17 0° 72° (ENE) 2,729 ? 39.4°
